Location: *
(49.5667°N, 1.3667°W)
Time: 22:08:18
(UTC+00:00)

SPOT 1/Viking Rocket - Pass Details

Date: 20 September 2019
Orbit: 777 x 795 km, 98.5° (Epoch: 16 October)

Event Time Altitude Azimuth Distance (km) Brightness Sun altitude
Exits shadow 20:46:26 42° 54° (NE) 1,105 4.1 -24.9°
Drops below altitude 10° 20:50:55 10° 357° (N) 2,350 6.5 -25.5°
Sets 20:53:20 0° 351° (N) 3,280 7.4 -25.8°
